This is the latest recevied weather packets stored in our database for station/object N1HQ. If no packets are shown the sender has not sent any weather packets the latest 10 day(s).
| Time | Temp. | Humidity | Pressure | Rain* | Wind** | Luminosity | Snow |
|---|---|---|---|---|---|---|---|
| 1787850082 | 31.11° C | 84% | 1013.2 hPa | 0 mm | - | - | - |
| 1787849823 | 31.11° C | 85% | 1013.1 hPa | 0 mm | - | - | - |
| 1787849558 | 31.11° C | 84% | 1013 hPa | 0 mm | - | - | - |
| 1787849278 | 30.56° C | 87% | 1013.2 hPa | 0 mm | - | - | - |
| 1787848988 | 30.56° C | 87% | 1013.3 hPa | 0 mm | - | - | - |
| 1787848691 | 30° C | 87% | 1013.3 hPa | 0 mm | - | - | - |
| 1787848428 | 30° C | 89% | 1013.2 hPa | 0 mm | - | - | - |
| 1787848163 | 30° C | 88% | 1013.2 hPa | 0 mm | - | - | - |
| 1787847911 | 29.44° C | 87% | 1013.2 hPa | 0 mm | - | - | - |
| 1787847672 | 29.44° C | 89% | 1013.3 hPa | 0 mm | - | - | - |
| 1787847398 | 29.44° C | 90% | 1013.2 hPa | 0 mm | - | - | - |
| 1787847126 | 28.89° C | 90% | 1013.3 hPa | 0 mm | - | - | - |
| 1787846843 | 28.89° C | 90% | 1013.5 hPa | 0 mm | - | - | - |
| 1787846558 | 28.89° C | 91% | 1013.4 hPa | 0 mm | - | - | - |
| 1787846291 | 28.89° C | 91% | 1013.4 hPa | 0 mm | - | - | - |
| 1787846051 | 28.89° C | 90% | 1013.3 hPa | 0 mm | - | - | - |
| 1787845771 | 28.33° C | 92% | 1013.2 hPa | 0 mm | - | - | - |
| 1787845511 | 28.33° C | 91% | 1013.3 hPa | 0 mm | - | - | - |
| 1787845248 | 28.33° C | 91% | 1013.3 hPa | 0 mm | - | - | - |
| 1787844988 | 27.78° C | 92% | 1013.2 hPa | 0 mm | - | - | - |
| 1787844691 | 27.78° C | 91% | 1013.3 hPa | 0 mm | - | - | - |
| 1787844398 | 27.78° C | 91% | 1013.4 hPa | 0 mm | - | - | - |
| 1787844111 | 27.78° C | 92% | 1013.5 hPa | 0 mm | - | - | - |
| 1787843858 | 28.33° C | 91% | 1013.5 hPa | 0 mm | - | - | - |
| 1787843612 | 28.33° C | 92% | 1013.7 hPa | 0 mm | - | - | - |
* Rain latest hour (hover to see other rain measurements)
** Current wind speed in m/s (hover to see current wind gust speed)